Regional Weather Roundup
Issued by NWS

Home | Current Version | Previous Version | Text Only | Print | Product List | Glossary Off
Versions: 1 2 3 4 5 6 7 8 9 10 11 12 13 14 15 16 17 18 19 20 21 22 23 24 25 26 27 28 29 30 31 32 33 34 35 36 37 38 39 40 41 42 43 44 45 46 47 48 49 50

000
ASUS43 KOAX 130402
RWRNE

WEATHER ROUNDUP FOR NEBRASKA
NATIONAL WEATHER SERVICE OMAHA NE
1100 PM CDT SAT JUL 12 2014

NOTES: SATELLITE DATA IS BEING USED TO AUGMENT CLOUD COVER ABOVE
       12000 FEET.
       "FAIR" INDICATES FEW OR NO CLOUDS BELOW 12,000 FEET WITH NO
       SIGNIFICANT WEATHER AND/OR OBSTRUCTIONS TO VISIBILITY.

  * THESE STATIONS DO NOT REPORT WEATHER SUCH AS RAIN...SNOW OR FOG.

NEZ001>004-019>022-054>056-130500-
NEBRASKA PANHANDLE

CITY           SKY/WX    TMP DP  RH WIND       PRES   REMARKS
SCOTTSBLUFF    LGT RAIN  69  65  86 NE6       30.26R
ALLIANCE       PTCLDY    68  63  84 S3        30.23R
CHADRON        PTCLDY    65  59  81 W6        30.22R
KIMBALL        PTCLDY    66  60  79 SE3       30.29S
SIDNEY         MOCLDY    64  56  75 N6        30.28R
$$

NEZ057>060-069>072-079>082-130500-
SOUTHWEST NEBRASKA

CITY           SKY/WX    TMP DP  RH WIND       PRES   REMARKS
NORTH PLATTE   CLEAR     68  63  84 CALM      30.15R
IMPERIAL       MOCLDY    71  65  81 N6        30.17F
LEXINGTON      PTCLDY    69  68  94 N3        30.12R
MCCOOK         PTCLDY    71  66  84 N6        30.12R
OGALLALA       CLEAR     69  62  78 CALM      30.19R
$$

NEZ005>010-023>029-035>040-094-130500-
NORTH CENTRAL NEBRASKA

CITY           SKY/WX    TMP DP  RH WIND       PRES   REMARKS
VALENTINE      CLEAR     68  65  90 CALM      30.14R
AINSWORTH      CLEAR     68  63  84 N5        30.14S
BROKEN BOW     CLEAR     68  66  93 NW5       30.13R
O`NEILL        CLEAR     70  64  80 CALM      30.10R
ORD            CLEAR     67  64  90 CALM      30.09R
THEDFORD       CLEAR     71  64  76 CALM      30.17R
$$

NEZ041-046>049-061>064-073>077-083>087-130500-
SOUTH CENTRAL NEBRASKA

CITY           SKY/WX    TMP DP  RH WIND       PRES   REMARKS
GRAND ISLAND   CLEAR     70  67  90 CALM      30.08R
AURORA         CLEAR     70  69  96 N5        30.07R
HASTINGS       MOCLDY    73  66  78 N8        30.07R
HEBRON         MOCLDY    78  70  76 N13       30.04R THUNDER
HOLDREGE       CLEAR     69  66  90 N5        30.10R
KEARNEY *      CLEAR     70  66  88 N3        30.10R
YORK           PTCLDY    70  68  94 N7        30.05F
$$

NEZ011>018-030>034-042>045-130500-
NORTHEAST NEBRASKA

CITY           SKY/WX    TMP DP  RH WIND       PRES   REMARKS
NORFOLK        CLEAR     66  64  93 W3        30.06R
ALBION         CLEAR     67  64  93 CALM      30.08R
BLAIR          CLEAR     71  65  81 N9        30.01F
TEKAMAH        CLEAR     67  65  93 NW5       30.01F
WAYNE          CLEAR     68  66  94 CALM      30.05S
$$

NEZ050>053-065>068-078-088>093-130500-
SOUTHEAST NEBRASKA

CITY           SKY/WX    TMP DP  RH WIND       PRES   REMARKS
LINCOLN        MOCLDY    74  67  78 NE9       30.01F
OMAHA EPPLEY   PTCLDY    72  67  84 N7        30.00F
BEATRICE       CLOUDY    72  69  90 N10       30.01S
FALLS CITY     PTCLDY    77  74  90 NW6       29.96S
NEBRASKA CITY  HVY RAIN  73  73 100 N10       30.00R
PLATTSMOUTH    MOCLDY    73  68  83 N6        30.00F
$$

NEZ044-045-051>053-067-130500-
OMAHA AREA

CITY           SKY/WX    TMP DP  RH WIND       PRES   REMARKS
OMAHA EPPLEY   PTCLDY    72  67  84 N7        30.00F
BLAIR          CLEAR     71  65  81 N9        30.01F
MILLARD        CLEAR     74  68  82 N5        30.00F
PLATTSMOUTH    MOCLDY    73  68  83 N6        30.00F
WAHOO          FAIR      69  65  88 N5        30.01F
$$



USA.gov is the U.S. government's official web portal to all federal, state and local government web resources and services.